Regional Weather Roundup
Issued by NWS

Home | Current Version | Previous Version | Text Only | Print | Product List | Glossary On
Versions: 1 2 3 4 5 6 7 8 9 10 11 12 13 14 15 16 17 18 19 20 21 22 23 24 25 26 27 28 29 30 31 32 33 34 35 36 37 38 39 40 41 42 43 44 45 46 47 48 49 50
000
ASUS43 KMKX 281521
RWRWI

WISCONSIN REGIONAL WEATHER ROUNDUP
NATIONAL WEATHER SERVICE MILWAUKEE/SULLIVAN WI
1000 AM CDT SAT MAY 28 2016

NOTE: "FAIR" INDICATES FEW OR NO CLOUDS BELOW 12,000 FEET WITH NO
SIGNIFICANT WEATHER AND/OR OBSTRUCTIONS TO VISIBILITY.

WIZ001-002-006>008-014>016-023>028-281600-
NORTHWEST WISCONSIN

CITY           SKY/WX    TMP DP  RH WIND       PRES   REMARKS
SUPERIOR ARPT  CLOUDY    48  48 100 N7        29.77F FOG
ASHLAND        PTSUNNY   58  54  86 N6        29.79R
HAYWARD        CLOUDY    62  58  86 CALM      29.78S
SIREN          CLOUDY    57  54  88 SE5       29.78R
CUMBERLAND     CLOUDY    59  57  94 W3        29.78S
RICE LAKE      CLOUDY    64  60  88 CALM      29.78S
CHETEK         CLOUDY    64  62  96 CALM      29.77S
LADYSMITH      CLOUDY    67  64  91 CALM      29.78R
EAU CLAIRE     CLOUDY    69  64  84 N6        29.75S
MENOMONIE      CLOUDY    66  66  99 CALM      29.76F
NEW RICHMOND   CLOUDY    63  62  97 NE6       29.77F
OSCEOLA        CLOUDY    60  60 100 CALM      29.80F
$$

WIZ003>005-009-010-017-018-281600-
NORTH CENTRAL WISCONSIN

CITY           SKY/WX    TMP DP  RH WIND       PRES   REMARKS
MANITOWISH WTR NOT AVBL
ARBOR VITAE    RAIN      72  69  90 CALM      29.78S
WOODRUFF       RAIN      72  69  90 CALM      29.78S
RHINELANDER    LGT RAIN  68  65  90 SE3       29.79F FOG
EAGLE RIVER    HVY RAIN  66  66  98 CALM      29.79F VSB 1
LAND O LAKES   CLOUDY    66  65  97 E6        29.81S FOG
PHILLIPS       CLOUDY    68  65  89 CALM      29.77S
TOMAHAWK       CLOUDY    66  64  93 CALM      29.78S
MEDFORD        CLOUDY    67  67  98 E5        29.76S
MERRILL        CLOUDY   N/A N/A N/A S6        29.78S
$$

WIZ029-030-035-036-043>047-281600-
CENTRAL WISCONSIN

CITY           SKY/WX    TMP DP  RH WIND       PRES   REMARKS
WAUSAU         RAIN      68  66  93 S5        29.75F VSB 1
MOSINEE        LGT RAIN  66  66 100 S7        29.78R
MARSHFIELD     LGT RAIN  68  65  90 S13       29.74S FOG
STEVENS POINT  CLOUDY    67  65  94 S9G18     29.78S
WAUPACA        CLOUDY    71  70  98 S9        29.79R
WAUTOMA        CLOUDY    70  67  90 S9        29.79R
WISC RAPIDS    CLOUDY    69  64  84 S7G18     29.77R
CAMP DOUGLAS   PTSUNNY   70  70 100 SW10      29.76R
$$

WIZ011>013-019>022-031-037>040-048>050-281600-
NORTHEAST WISCONSIN

CITY           SKY/WX    TMP DP  RH WIND       PRES   REMARKS
ANTIGO         CLOUDY    67  66  97 S8        29.80S
SHAWANO        CLOUDY    73  66  79 S8        29.79S
OCONTO         CLOUDY    70  70 100 S9        29.81R
STURGEON BAY   NOT AVBL
GREEN BAY      PTSUNNY   74  67  78 S15G24    29.80S
MANITOWOC      CLOUDY    66  61  84 S16       29.85S
APPLETON       CLOUDY    70  64  83 S13       29.79S
CLINTONVILLE   LGT RAIN  70  66  88 S16       29.79R
OSHKOSH        CLOUDY    73  65  75 S18G30    29.80R
$$

WIZ032>034-041-042-053>061-281600-
SOUTHWEST WISCONSIN

CITY           SKY/WX    TMP DP  RH WIND       PRES   REMARKS
LA CROSSE      CLOUDY    70  65  84 SW7       29.75R
SPARTA         CLOUDY    71  67  88 S7        29.76R
VIROQUA        CLOUDY    68  68 100 SW10G16   29.78S
BOSCOBEL       PTSUNNY   72  65  78 S9        29.80R
PRAIRIE DU CHI CLOUDY    70  62  78 S10       29.80R
PLATTEVILLE    CLOUDY    69  65  89 S17       29.83R
$$

WIZ056-057-062-063-064-067-068-281600-
SOUTH CENTRAL WISCONSIN

CITY           SKY/WX    TMP DP  RH WIND       PRES   REMARKS
REEDSBURG      CLOUDY    70  65  85 S17G23    29.79R
BARABOO/DELLS  CLOUDY    69  62  79 SW15G25   29.80R
LONE ROCK      CLOUDY    72  63  73 SW16G22   29.81R
MINERAL POINT  CLOUDY    70  64  83 S15       29.82F
MADISON        CLOUDY    72  64  76 SW9G22    29.82R
MIDDLETON      CLOUDY    73  64  73 SW18G26   29.82R
WATERTOWN      CLOUDY    72  67  85 S15G22    29.84R
MONROE         CLOUDY    70  64  83 S20G25    29.84R
JANESVILLE     CLOUDY    73  66  78 S18G26    29.85R
$$

WIZ051-052-058>065-066-070>072-281600-
SOUTHEAST WISCONSIN

CITY           SKY/WX    TMP DP  RH WIND       PRES   REMARKS
MILWAUKEE      CLOUDY    75  65  70 SW21G29   29.86R
WAUKESHA       CLOUDY    70  64  83 S15       29.86S
MILWAUKEE/TIMM CLOUDY    73  63  68 SW12G22   29.86R
RACINE         CLOUDY    73  64  73 S9        29.89R
BURLINGTON     CLOUDY    72  65  78 S20       29.87R
KENOSHA        CLOUDY    73  65  75 S16       29.88R
FOND DU LAC    CLOUDY    73  66  78 S22G32    29.81R
SHEBOYGAN      CLOUDY    71  65  81 S14       29.84S
WEST BEND      CLOUDY    72  63  73 S17G25    29.84S
JUNEAU         CLOUDY    72  66  81 S17G24    29.84S
$$

LSZ147-162-281600-
LAKE SUPERIOR

STATION/POSITION TIME  TEMP    WIND        PRES    WAVE
                       AIR SEA DIR/SP/G            HT/PER
                 (UTC) (F)     (DEG/KT/KT) (MB)    (FT/S)
W MID LAKE BUOY  1450   42 38   30/ 12/ 14 1008.6F   2/ 4
DEVILS ISLAND    1500   43     120/  5/  6 1009.6R
SAXON HARBOR     1440   51      40/  2/  3 1008.5R
$$

LMZ867-665-643>646-281600-
LAKE MICHIGAN

STATION/POSITION TIME  TEMP    WIND        PRES    WAVE
                       AIR SEA DIR/SP/G            HT/PER
                 (UTC) (F)     (DEG/KT/KT) (MB)    (FT/S)
CHAMBERS ISLAND  1400   63     130/  6/ 12 1010.2S
N MID LAKE BUOY  1450   52 46  160/  8/ 10 1011.1F   2/ 4
NORTHPORT PIER   1400   55     140/ 10/ 15 1011.2R
SISTER BAY       1405   63     180/ 17/ 20   N/A
ALGOMA LAKESHORE 1417          200/  9/ 10   N/A
KEWAUNEE LAKESHO 1400   52     180/  8/  9 1010.2R
SHEBOYGAN LAKESH 1500   56     170/ 18/ 18 1011.0R
PORT WASHINGTON  1440   61     200/  8/ 12 1011.5S
S MID LAKE BUOY  1450   56 50  160/ 12/ 14 1012.4R   2/ 3
KENOSHA   LAKESH 1500   58     170/ 13/ 16 1011.9R
$$

TC  - TEMPERATURE IN CELSIUS
VSB - VISIBILITY IN STATUTE MILES
WCI - WIND CHILL INDEX
HX  - HEAT INDEX





USA.gov is the U.S. government's official web portal to all federal, state and local government web resources and services.